C/2017 E5 ( Lemmon )

Japanese version
Home page
Updated on May 20, 2017

---------------------------------------------------------------------

* Profile

Discovery Date March 4, 2017
Magnitude 20.1 mag
Discoverer G. J. Leonard (Mount Lemmon)

* Orbital Elements

Epoch 2016 June 21.0 TT = JDT 2457560.5
T 2016 June 10.88177 TT                                 MPCW
q   1.7839930            (2000.0)            P               Q
z  +0.0025314      Peri.  306.79231     -0.34681511     -0.86113252
 +/-0.0000754      Node   206.19223     -0.32979023     -0.25904393
e   0.9954840      Incl.  122.63200     -0.87804196     +0.43743232
From 81 observations 2017 Feb. 9-Mar. 31, mean residual 0".7.

* Magnitudes Graph

        m1 = 12.0 + 5 log d + 10.0 log r

---------------------------------------------------------------------

The orbital elements are published on M.P.E.C. 2017-J52.
The magnitudes graphs are made with Comet for Windows.

---------------------------------------------------------------------

Copyright(C) Seiichi Yoshida (comet@aerith.net). All rights reserved.